Location: Newark
(9.4667°S, 159.8167°E)
Time: 21:59:11
(UTC+00:00)

Courier 1B Rocket - Pass Details

Date: 25 November 2019
Orbit: 920 x 1202 km, 28.2° (Epoch: 10 December)

Event Time Altitude Azimuth Distance (km) Brightness Sun altitude
Rises 20:34:01 0° 244° (WSW) 3,683 7.6 23.4°
Reaches altitude 10° 20:36:44 10° 246° (WSW) 2,698 7.0 24.0°
Maximum altitude 20:43:12 76° 331° (NNW) 958 5.3 25.6°
Drops below altitude 10° 20:49:25 10° 56° (NE) 2,601 7.9 27.0°
Sets 20:52:00 0° 57° (ENE) 3,542 8.5 27.6°
